FW7227 Weather Reports


Display with metric or nautical units.
time (UTC)temp
F
wind
direction
speed
MPH
gust
MPH
rain 1hr
in
rain 24hr
in
rain mn
in
humidity
%
barometer
mb
20260507112626 47 360 3.0 6.0 0.00 0.26 0.11 91 1015.3
20260507112058 46 360 1.0 5.0 0.00 0.26 0.11 91 1015.3
20260507111559 46 360 2.0 6.0 0.00 0.26 0.11 92 1015.3
20260507111056 46 360 1.0 6.0 0.00 0.26 0.11 91 1015.2
20260507110600 46 360 2.0 5.0 0.00 0.26 0.11 92 1015.2
20260507110057 46 360 1.0 3.0 0.00 0.26 0.11 92 1015.1
20260507105558 46 0 1.0 5.0 0.00 0.27 0.11 92 1015.2
20260507105057 46 360 2.0 6.0 0.00 0.27 0.11 92 1015.1
20260507104601 46 360 1.0 10.0 0.00 0.27 0.11 92 1015.1
20260507104101 46 360 3.0 10.0 0.00 0.27 0.11 91 1015.0
20260507103600 46 360 4.0 10.0 0.00 0.27 0.11 91 1015.0
20260507103058 46 360 3.0 6.0 0.00 0.26 0.10 92 1015.0
20260507102559 46 360 2.0 8.0 0.00 0.26 0.10 92 1014.9
20260507102100 46 0 2.0 8.0 0.00 0.26 0.10 92 1014.7
20260507101601 46 360 2.0 8.0 0.00 0.26 0.10 92 1014.7
20260507101100 46 360 3.0 8.0 0.00 0.26 0.10 92 1014.6
20260507100557 46 360 2.0 5.0 0.00 0.26 0.10 92 1014.6
20260507100059 46 360 1.0 8.0 0.00 0.26 0.10 92 1014.5
20260507095557 46 360 3.0 9.0 0.00 0.26 0.10 92 1014.5
20260507095057 46 360 3.0 9.0 0.01 0.26 0.10 92 1014.4
20260507094557 46 360 5.0 9.0 0.01 0.26 0.10 92 1014.3
20260507094101 46 360 2.0 9.0 0.01 0.26 0.10 92 1014.3
20260507093557 45 0 3.0 9.0 0.01 0.26 0.10 92 1014.3
20260507093056 45 360 3.0 9.0 0.01 0.26 0.10 92 1014.2
20260507092558 45 360 3.0 9.0 0.01 0.26 0.10 91 1014.2
20260507092057 45 360 3.0 9.0 0.01 0.26 0.10 91 1014.1
20260507091558 45 360 4.0 9.0 0.01 0.26 0.10 91 1014.0
20260507091059 45 360 5.0 9.0 0.00 0.25 0.09 91 1014.0
20260507090558 45 360 2.0 6.0 0.00 0.25 0.09 92 1013.9
20260507085557 45 360 2.0 10.0 0.00 0.26 0.09 92 1013.8
20260507085057 45 360 5.0 10.0 0.00 0.25 0.08 92 1013.7
20260507084557 45 360 5.0 9.0 0.00 0.25 0.08 92 1013.7
20260507084057 45 360 4.0 9.0 0.00 0.25 0.08 92 1013.7
20260507083600 45 360 5.0 9.0 0.00 0.25 0.08 92 1013.6
20260507083058 45 360 2.0 12.0 0.00 0.25 0.08 92 1013.6
20260507082559 45 360 4.0 12.0 0.00 0.25 0.08 92 1013.6
20260507082056 45 360 6.0 12.0 0.00 0.25 0.08 92 1013.5
20260507081557 45 360 3.0 11.0 0.00 0.25 0.08 93 1013.5
20260507081101 45 360 4.0 10.0 0.00 0.25 0.08 93 1013.4
20260507080559 45 360 3.0 10.0 0.00 0.25 0.08 93 1013.4
20260507080120 45 360 3.0 12.0 0.00 0.25 0.08 94 1013.3
20260507075559 45 360 7.0 12.0 0.00 0.29 0.08 94 1013.3
20260507075057 45 360 5.0 9.0 0.00 0.29 0.08 94 1013.2
20260507074557 45 360 3.0 9.0 0.00 0.29 0.08 94 1013.2
20260507074057 45 360 5.0 11.0 0.00 0.29 0.08 94 1013.1
20260507073601 45 360 3.0 11.0 0.00 0.29 0.08 94 1013.0
20260507073057 45 360 3.0 11.0 0.00 0.29 0.08 94 1012.9
20260507072559 45 360 3.0 10.0 0.00 0.29 0.08 94 1012.9
20260507072057 45 360 4.0 13.0 0.00 0.29 0.08 94 1012.8
20260507071604 44 360 4.0 13.0 0.00 0.29 0.08 94 1012.8
20260507071057 45 360 7.0 12.0 0.00 0.29 0.08 94 1012.7
20260507070558 45 360 4.0 11.0 0.00 0.29 0.08 94 1012.6
20260507070103 45 360 5.0 11.0 0.00 0.29 0.08 94 1012.7
20260507065601 45 360 2.0 11.0 0.00 0.38 0.08 95 1012.6
20260507065057 45 360 4.0 12.0 0.00 0.38 0.08 95 1012.6
20260507064631 45 360 3.0 12.0 0.00 0.38 0.08 95 1012.5
20260507064101 45 360 5.0 10.0 0.00 0.38 0.08 95 1012.5
20260507063558 45 360 5.0 10.0 0.00 0.38 0.08 95 1012.4
20260507063117 45 360 3.0 11.0 0.00 0.38 0.08 95 1012.4
20260507062557 45 360 5.0 11.0 0.00 0.38 0.08 95 1012.3
20260507062057 45 360 5.0 10.0 0.00 0.38 0.08 95 1012.3
20260507061556 45 360 4.0 8.0 0.00 0.38 0.08 95 1012.2
20260507061056 45 360 2.0 11.0 0.00 0.38 0.08 95 1012.2
20260507060558 45 360 4.0 11.0 0.00 0.38 0.08 95 1012.1
20260507060111 45 360 4.0 11.0 0.00 0.38 0.08 95 1012.1
20260507055557 45 360 5.0 11.0 0.00 0.48 0.08 95 1012.0
20260507055056 45 360 4.0 12.0 0.00 0.48 0.08 95 1011.9
20260507054607 45 360 4.0 12.0 0.00 0.48 0.08 95 1011.8
20260507054058 44 360 3.0 9.0 0.00 0.48 0.08 95 1011.7
20260507053557 44 0 1.0 9.0 0.00 0.48 0.08 95 1011.6
20260507053106 44 360 3.0 10.0 0.00 0.48 0.08 95 1011.5
20260507052557 44 0 5.0 10.0 0.00 0.48 0.08 95 1011.5
20260507052057 44 360 2.0 10.0 0.00 0.48 0.08 95 1011.3
20260507051607 44 360 5.0 13.0 0.00 0.48 0.08 95 1011.3
20260507051056 44 360 4.0 13.0 0.00 0.48 0.08 95 1011.3
20260507050557 44 360 3.0 12.0 0.00 0.48 0.08 95 1011.2
20260507050057 44 360 6.0 13.0 0.00 0.48 0.08 95 1011.2
20260507045557 44 360 6.0 13.0 0.00 0.56 0.08 95 1011.1
20260507045057 44 360 5.0 13.0 0.00 0.56 0.08 95 1011.2
20260507044600 44 360 5.0 13.0 0.00 0.56 0.08 94 1011.2
20260507044056 44 360 6.0 12.0 0.00 0.56 0.08 94 1011.1
20260507043556 44 360 6.0 12.0 0.00 0.56 0.08 94 1011.0
20260507043058 44 360 4.0 11.0 0.00 0.56 0.08 94 1010.9
20260507042559 44 360 5.0 14.0 0.00 0.56 0.08 94 1010.8
20260507042056 44 360 5.0 14.0 0.00 0.56 0.08 94 1010.8
20260507041559 45 360 6.0 13.0 0.00 0.56 0.08 94 1010.8
20260507041057 45 360 5.0 12.0 0.00 0.56 0.08 94 1010.7
20260507040558 45 360 6.0 11.0 0.01 0.56 0.08 94 1010.7
20260507040057 45 360 3.0 14.0 0.01 0.56 0.08 94 1010.7
20260507035557 45 360 5.0 14.0 0.01 0.66 0.08 94 1010.7
20260507035058 45 360 4.0 12.0 0.01 0.66 0.08 94 1010.7
20260507034557 45 360 5.0 12.0 0.00 0.66 0.07 94 1010.7
20260507034056 45 360 3.0 10.0 0.01 0.66 0.07 94 1010.6
20260507033557 45 360 4.0 14.0 0.01 0.66 0.07 94 1010.6
20260507033057 45 360 7.0 14.0 0.01 0.66 0.07 94 1010.6
20260507032558 45 360 7.0 13.0 0.01 0.66 0.07 94 1010.6
20260507032056 45 360 6.0 15.0 0.01 0.66 0.07 94 1010.6
20260507031555 45 360 9.0 17.0 0.01 0.66 0.07 94 1010.4
20260507031057 46 360 5.0 17.0 0.01 0.66 0.07 94 1010.5
20260507030556 46 360 9.0 17.0 0.00 0.65 0.07 94 1010.4
20260507030055 46 360 5.0 12.0 0.00 0.65 0.07 94 1010.3
20260507025556 46 360 6.0 12.0 0.00 0.82 0.07 94 1010.3
20260507025057 46 360 5.0 12.0 0.01 0.82 0.07 94 1010.2
20260507024556 46 360 5.0 12.0 0.01 0.82 0.07 94 1010.2
20260507024058 46 360 4.0 11.0 0.01 0.81 0.06 95 1010.2
20260507023557 47 360 4.0 13.0 0.01 0.81 0.06 95 1010.2
20260507023057 47 360 3.0 13.0 0.02 0.81 0.06 95 1010.1
20260507022557 47 360 6.0 12.0 0.02 0.81 0.06 95 1010.1
20260507022057 47 360 7.0 12.0 0.02 0.81 0.06 94 1010.0
20260507021555 47 360 5.0 10.0 0.02 0.81 0.06 94 1010.0
20260507021057 47 360 4.0 10.0 0.02 0.81 0.06 94 1009.9
20260507020557 47 360 3.0 13.0 0.02 0.81 0.06 94 1009.9
20260507020111 47 360 4.0 13.0 0.02 0.81 0.06 94 1009.7
20260507015556 47 360 4.0 12.0 0.02 0.92 0.06 94 1009.6
20260507015053 47 360 3.0 12.0 0.01 0.91 0.05 95 1009.7
20260507014601 47 360 5.0 12.0 0.02 0.91 0.05 95 1009.6
20260507014100 47 360 5.0 12.0 0.01 0.90 0.04 95 1009.6
20260507013557 47 360 4.0 12.0 0.01 0.90 0.04 95 1009.5
20260507013057 47 360 5.0 11.0 0.00 0.89 0.03 95 1009.4
20260507012559 47 360 4.0 11.0 0.00 0.89 0.03 95 1009.3
20260507012057 47 360 5.0 15.0 0.00 0.89 0.03 95 1009.2
20260507011557 47 360 7.0 15.0 0.00 0.89 0.03 95 1009.2
20260507011058 48 360 3.0 9.0 0.00 0.89 0.03 95 1009.2
20260507010558 48 360 3.0 10.0 0.00 0.89 0.03 95 1009.2
20260507010110 48 360 3.0 11.0 0.00 0.89 0.03 95 1009.2
20260507005557 48 360 3.0 11.0 0.00 0.98 0.03 94 1009.2
20260507005057 48 360 4.0 11.0 0.00 0.98 0.03 94 1009.1
20260507004556 48 0 3.0 11.0 0.00 0.97 0.03 94 1009.0
20260507004057 48 360 5.0 13.0 0.00 0.97 0.03 94 1009.1
20260507003557 48 360 4.0 13.0 0.00 0.97 0.03 94 1009.1
20260507003058 48 360 4.0 11.0 0.00 0.97 0.03 94 1008.9
20260507002557 48 360 4.0 11.0 0.00 0.97 0.03 94 1008.9
20260507002057 48 360 5.0 14.0 0.00 0.97 0.03 94 1008.9
20260507001603 48 360 7.0 14.0 0.00 0.97 0.03 95 1008.8
20260507001059 48 360 5.0 11.0 0.00 0.97 0.03 95 1008.8
20260507000559 48 360 2.0 9.0 0.00 0.97 0.03 95 1008.9
20260507000056 48 360 3.0 11.0 0.00 0.97 0.03 95 1008.8
20260506235557 48 360 3.0 12.0 0.00 1.04 0.03 95 1008.9
20260506235057 48 360 5.0 14.0 0.00 1.04 0.03 95 1008.8
20260506234600 48 360 4.0 14.0 0.00 1.04 0.03 94 1008.8
20260506234057 48 360 7.0 14.0 0.00 1.04 0.03 94 1008.7
20260506233557 48 360 4.0 11.0 0.00 1.04 0.03 94 1008.7
20260506233100 48 360 4.0 10.0 0.01 1.04 0.03 94 1008.7
20260506232600 48 360 3.0 14.0 0.01 1.04 0.03 94 1008.8
20260506232057 48 360 6.0 14.0 0.01 1.04 0.03 94 1008.7
20260506231609 48 360 4.0 11.0 0.02 1.04 0.03 94 1008.6
20260506231057 48 360 5.0 10.0 0.02 1.04 0.03 94 1008.7
20260506230556 48 360 2.0 14.0 0.02 1.04 0.03 94 1008.6
20260506230111 48 360 5.0 14.0 0.02 1.04 0.03 94 1008.6
20260506225556 48 360 5.0 13.0 0.02 1.03 0.02 94 1008.5
20260506225056 48 360 4.0 13.0 0.03 1.03 0.02 94 1008.5
20260506224557 49 360 4.0 12.0 0.03 1.03 0.02 94 1008.5
20260506224056 49 360 5.0 12.0 0.03 1.03 0.02 94 1008.5
20260506223556 49 360 3.0 13.0 0.04 1.03 0.02 94 1008.5
20260506223056 49 360 5.0 13.0 0.05 1.03 0.01 94 1008.4
20260506222557 49 360 7.0 13.0 0.06 1.03 0.01 94 1008.4
20260506222057 49 360 4.0 11.0 0.06 1.03 0.01 94 1008.3
20260506221617 49 360 3.0 10.0 0.06 1.02 0.00 94 1008.4
20260506221056 49 360 4.0 11.0 0.06 1.02 0.00 94 1008.3
20260506220557 49 360 5.0 11.0 0.06 1.02 0.00 94 1008.3
20260506220122 49 360 5.0 12.0 0.06 1.02 0.00 94 1008.2
20260506215556 49 360 5.0 12.0 0.05 1.01 1.01 94 1008.1
20260506215056 49 360 4.0 10.0 0.04 1.00 1.00 94 1008.2
20260506214557 50 360 5.0 10.0 0.04 1.00 1.00 94 1008.2
20260506214056 50 360 6.0 13.0 0.03 1.00 1.00 94 1008.2
20260506213557 50 360 4.0 14.0 0.03 0.99 0.99 94 1008.2
20260506213110 50 360 5.0 14.0 0.01 0.97 0.97 94 1008.2
20260506212556 50 360 7.0 12.0 0.00 0.96 0.96 94 1008.1
20260506212059 50 360 4.0 10.0 0.00 0.96 0.96 94 1008.0
20260506211600 50 360 2.0 9.0 0.00 0.96 0.96 94 1008.0
20260506211057 50 360 4.0 11.0 0.00 0.96 0.96 94 1007.9
20260506210557 50 360 4.0 11.0 0.00 0.96 0.96 94 1007.9
20260506210105 50 360 1.0 10.0 0.00 0.96 0.96 94 1007.8
20260506205559 50 360 4.0 10.0 0.00 0.96 0.96 94 1007.8
20260506205058 50 360 3.0 12.0 0.00 0.96 0.96 94 1007.8
20260506204607 50 360 2.0 12.0 0.00 0.96 0.96 94 1007.8
20260506204057 50 360 5.0 12.0 0.00 0.96 0.96 94 1007.7
20260506203557 50 360 5.0 14.0 0.00 0.96 0.96 94 1007.6
20260506203104 50 360 7.0 14.0 0.00 0.96 0.96 94 1007.6
20260506202557 50 360 6.0 14.0 0.00 0.96 0.96 94 1007.6
20260506202058 50 360 6.0 14.0 0.00 0.96 0.96 94 1007.6
20260506201557 50 360 4.0 14.0 0.00 0.96 0.96 94 1007.5
20260506201057 51 360 5.0 14.0 0.00 0.96 0.96 94 1007.5
20260506200558 51 360 6.0 12.0 0.00 0.96 0.96 94 1007.4
20260506200059 51 360 4.0 10.0 0.00 0.96 0.96 94 1007.4
20260506195557 51 360 3.0 12.0 0.00 0.96 0.96 94 1007.4
20260506195057 51 360 5.0 12.0 0.00 0.96 0.96 94 1007.4
20260506194556 51 360 4.0 10.0 0.00 0.96 0.96 94 1007.3
20260506194058 51 360 5.0 10.0 0.00 0.96 0.96 94 1007.3
20260506193558 51 360 4.0 9.0 0.00 0.96 0.96 94 1007.3
20260506193059 51 360 4.0 11.0 0.00 0.96 0.96 94 1007.3
20260506192559 51 360 4.0 11.0 0.00 0.96 0.96 94 1007.2
20260506192058 51 360 3.0 10.0 0.01 0.96 0.96 94 1007.2
20260506191617 51 360 5.0 11.0 0.01 0.96 0.96 94 1007.1
20260506191058 51 360 6.0 13.0 0.01 0.96 0.96 94 1007.0
20260506190558 51 360 4.0 14.0 0.01 0.96 0.96 94 1007.0
20260506190058 51 360 6.0 14.0 0.01 0.96 0.96 94 1007.0
20260506185557 51 360 6.0 12.0 0.01 0.96 0.96 94 1006.9
20260506185057 51 360 4.0 10.0 0.01 0.96 0.96 94 1006.8
20260506184622 51 360 5.0 11.0 0.01 0.96 0.96 94 1006.9
20260506184058 51 360 6.0 11.0 0.01 0.96 0.96 94 1006.8
20260506183601 52 360 5.0 11.0 0.01 0.96 0.96 94 1006.7
20260506183104 52 360 5.0 11.0 0.00 0.95 0.95 94 1006.5
20260506182558 52 360 4.0 10.0 0.00 0.95 0.95 94 1006.5
20260506182057 52 360 4.0 9.0 0.00 0.94 0.94 94 1006.6
20260506181559 52 360 5.0 9.0 0.00 0.94 0.94 94 1006.6
20260506181057 52 360 4.0 10.0 0.00 0.94 0.94 94 1006.6
20260506180558 52 360 5.0 10.0 0.00 0.94 0.94 94 1006.6
20260506180058 52 360 3.0 10.0 0.00 0.94 0.94 94 1006.5
20260506175557 52 360 3.0 10.0 0.00 0.94 0.94 94 1006.6
20260506175058 52 360 4.0 12.0 0.00 0.94 0.94 94 1006.5
20260506174558 52 360 3.0 12.0 0.00 0.94 0.94 94 1006.5
20260506174057 52 360 4.0 10.0 0.00 0.94 0.94 94 1006.5
20260506173558 52 360 3.0 9.0 0.00 0.94 0.94 94 1006.5
20260506173056 52 360 3.0 9.0 0.00 0.94 0.94 94 1006.4
20260506172557 52 360 4.0 9.0 0.00 0.94 0.94 94 1006.4
20260506172058 52 360 4.0 9.0 0.00 0.94 0.94 94 1006.4
20260506171607 52 360 4.0 9.0 0.00 0.94 0.94 94 1006.4
20260506171058 52 360 4.0 9.0 0.00 0.94 0.94 94 1006.4
20260506170558 52 360 2.0 8.0 0.00 0.94 0.94 94 1006.4
20260506170059 52 360 4.0 8.0 0.00 0.94 0.94 94 1006.4
20260506165557 52 360 4.0 8.0 0.00 0.94 0.94 94 1006.4
20260506165058 52 360 2.0 6.0 0.00 0.94 0.94 94 1006.4
20260506164558 52 0 3.0 8.0 0.00 0.94 0.94 94 1006.4
20260506164058 52 360 1.0 8.0 0.00 0.94 0.94 94 1006.4
20260506163557 52 360 2.0 8.0 0.00 0.94 0.94 94 1006.4
20260506163107 52 360 2.0 8.0 0.01 0.94 0.94 94 1006.3
20260506162559 52 0 1.0 8.0 0.01 0.94 0.94 94 1006.2
20260506162100 52 360 3.0 8.0 0.02 0.94 0.94 94 1006.3
20260506161557 52 360 1.0 5.0 0.02 0.94 0.94 94 1006.2
20260506161057 52 360 2.0 5.0 0.02 0.94 0.94 94 1006.2
20260506160558 52 360 1.0 6.0 0.02 0.94 0.94 94 1006.3
20260506160108 52 360 2.0 10.0 0.02 0.94 0.94 94 1006.3
20260506155557 52 360 3.0 10.0 0.03 0.94 0.94 94 1006.4
20260506155057 52 360 3.0 10.0 0.03 0.94 0.94 94 1006.2
20260506154558 52 360 4.0 11.0 0.04 0.94 0.94 94 1006.2
20260506154100 51 0 5.0 16.0 0.03 0.93 0.93 94 1006.2
20260506153558 51 360 5.0 16.0 0.03 0.93 0.93 94 1006.3
20260506153059 51 360 4.0 11.0 0.03 0.92 0.92 94 1006.2
20260506152557 51 360 5.0 11.0 0.03 0.92 0.92 94 1006.3
20260506152057 51 360 5.0 11.0 0.02 0.92 0.92 94 1006.4
20260506151558 51 360 4.0 10.0 0.03 0.92 0.92 94 1006.4
20260506151057 51 360 4.0 10.0 0.03 0.92 0.92 93 1006.4
20260506150557 51 360 4.0 10.0 0.03 0.92 0.92 93 1006.5
20260506150056 52 360 5.0 10.0 0.03 0.92 0.92 94 1006.4
20260506145557 52 360 4.0 10.0 0.03 0.91 0.91 94 1006.3
20260506145057 51 360 5.0 10.0 0.03 0.90 0.90 94 1006.3
20260506144603 51 360 5.0 11.0 0.03 0.89 0.89 94 1006.3
20260506144058 51 360 5.0 11.0 0.03 0.89 0.89 94 1006.4
20260506143558 51 360 5.0 10.0 0.03 0.89 0.89 93 1006.4
20260506143057 51 360 6.0 10.0 0.03 0.89 0.89 94 1006.3
20260506142558 51 360 2.0 9.0 0.03 0.89 0.89 94 1006.4
20260506142059 51 360 3.0 9.0 0.03 0.89 0.89 94 1006.4
20260506141557 51 360 4.0 9.0 0.02 0.88 0.88 94 1006.4
20260506141057 51 360 3.0 12.0 0.02 0.88 0.88 94 1006.4
20260506140557 51 360 4.0 12.0 0.01 0.88 0.88 93 1006.4
20260506140059 51 360 5.0 12.0 0.00 0.87 0.87 93 1006.5
20260506135557 51 360 4.0 10.0 0.00 0.87 0.87 93 1006.5
20260506135057 51 360 3.0 9.0 0.00 0.86 0.86 93 1006.5
20260506134557 51 360 2.0 8.0 0.00 0.86 0.86 93 1006.5
20260506134058 51 360 3.0 8.0 0.00 0.86 0.86 93 1006.5
20260506133558 51 360 2.0 10.0 0.00 0.86 0.86 93 1006.6
20260506133056 51 360 3.0 10.0 0.00 0.86 0.86 93 1006.5
20260506132557 51 360 4.0 9.0 0.00 0.86 0.86 93 1006.4
20260506132059 51 360 3.0 8.0 0.00 0.86 0.86 93 1006.5
20260506131607 51 360 3.0 9.0 0.00 0.86 0.86 93 1006.5
20260506131100 51 360 3.0 9.0 0.00 0.86 0.86 93 1006.5
20260506130558 51 360 4.0 9.0 0.00 0.86 0.86 93 1006.4
20260506130057 51 360 4.0 9.0 0.00 0.86 0.86 93 1006.5
20260506125557 51 360 3.0 10.0 0.00 0.86 0.86 93 1006.5
20260506125058 51 360 4.0 11.0 0.00 0.86 0.86 93 1006.4
20260506124557 51 360 6.0 11.0 0.00 0.86 0.86 93 1006.4
20260506124057 51 360 5.0 11.0 0.00 0.86 0.86 94 1006.4
20260506123557 51 360 3.0 10.0 0.00 0.86 0.86 94 1006.4
20260506123055 51 360 5.0 11.0 0.00 0.86 0.86 94 1006.4
20260506122557 51 360 6.0 11.0 0.00 0.86 0.86 94 1006.3
20260506122057 51 360 5.0 11.0 0.00 0.85 0.85 94 1006.4
20260506121558 51 360 4.0 9.0 0.00 0.85 0.85 94 1006.4
20260506121057 51 360 4.0 9.0 0.00 0.85 0.85 94 1006.4
20260506120602 51 360 2.0 8.0 0.00 0.85 0.85 94 1006.4
20260506115558 50 360 5.0 12.0 0.00 0.85 0.85 93 1006.3
20260506115058 50 360 3.0 12.0 0.00 0.85 0.85 93 1006.2
20260506114559 50 360 4.0 12.0 0.00 0.85 0.85 94 1006.2
20260506114058 50 360 3.0 10.0 0.00 0.85 0.85 94 1006.2
20260506113557 50 360 5.0 12.0 0.00 0.85 0.85 94 1006.2
20260506113057 50 360 4.0 12.0 0.00 0.85 0.85 93 1006.3